Location: Gad�tanya
(48.0500°N, 20.8500°E)
Time: 11:15:25
(UTC+00:00)

IRIDIUM 106 - Pass Details

Date: 05 July 2020
Orbit: 776 x 779 km, 86.4° (Epoch: 14 August)

Event Time Altitude Azimuth Distance (km) Brightness Sun altitude
Exits shadow 22:19:29 37° 185° (S) 1,207 4.8 -19.1°
Maximum altitude 22:21:40 88° 271° (W) 788 4.3 -19.1°
Drops below altitude 10° 22:26:56 10° 3° (N) 2,344 8.0 -19.2°
Sets 22:29:18 0° 4° (N) 3,277 9.2 -19.2°
